This is the latest recevied weather packets stored in our database for station/object KD4EG. If no packets are shown the sender has not sent any weather packets the latest 10 day(s).
| Time | Temp. | Humidity | Pressure | Rain* | Wind** | Luminosity | Snow |
|---|---|---|---|---|---|---|---|
| 1788106766 | 27.78° C | 71% | 1025.7 hPa | 0 mm | - | 642 W/m² | - |
| 1788106466 | 27.78° C | 73% | 1025.8 hPa | 0 mm | - | 642 W/m² | - |
| 1788106161 | 27.78° C | 73% | 1026 hPa | 0 mm | - | 649 W/m² | - |
| 1788105857 | 27.78° C | 73% | 1025.9 hPa | 0 mm | - | 629 W/m² | - |
| 1788105552 | 27.78° C | 73% | 1025.7 hPa | 0 mm | - | 672 W/m² | - |
| 1788105249 | 27.22° C | 74% | 1025.9 hPa | 0 mm | - | 687 W/m² | - |
| 1788104943 | 27.78° C | 73% | 1025.9 hPa | 0 mm | - | 693 W/m² | - |
| 1788104639 | 27.22° C | 73% | 1025.9 hPa | 0 mm | - | 742 W/m² | - |
| 1788104335 | 27.22° C | 74% | 1025.9 hPa | 0 mm | - | 761 W/m² | - |
| 1788104031 | 26.67° C | 74% | 1026.1 hPa | 0 mm | - | 718 W/m² | - |
| 1788103729 | 26.67° C | 75% | 1025.9 hPa | 0 mm | - | 719 W/m² | - |
| 1788103424 | 26.11° C | 76% | 1026 hPa | 0 mm | - | 753 W/m² | - |
| 1788103119 | 25.56° C | 77% | 1025.9 hPa | 0 mm | - | 684 W/m² | - |
| 1788102818 | 26.11° C | 77% | 1025.9 hPa | 0 mm | - | 753 W/m² | - |
| 1788102513 | 26.11° C | 78% | 1026 hPa | 0 mm | - | 702 W/m² | - |
| 1788102212 | 26.11° C | 76% | 1026 hPa | 0 mm | - | 196 W/m² | - |
| 1788101907 | 25.56° C | 78% | 1025.9 hPa | 0 mm | - | 620 W/m² | - |
| 1788101602 | 25.56° C | 78% | 1026.1 hPa | 0 mm | - | 672 W/m² | - |
| 1788101298 | 25.56° C | 79% | 1025.8 hPa | 0 mm | - | 609 W/m² | - |
| 1788100994 | 25.56° C | 80% | 1026 hPa | 0 mm | - | 575 W/m² | - |
| 1788100689 | 25° C | 81% | 1026.1 hPa | 0 mm | - | 538 W/m² | - |
| 1788100389 | 25° C | 81% | 1026 hPa | 0 mm | - | 294 W/m² | - |
| 1788100083 | 25.56° C | 79% | 1026.1 hPa | 0 mm | - | 568 W/m² | - |
| 1788099778 | 25° C | 82% | 1026 hPa | 0 mm | - | 501 W/m² | - |
| 1788099475 | 24.44° C | 83% | 1025.9 hPa | 0 mm | - | 284 W/m² | - |
* Rain latest hour (hover to see other rain measurements)
** Current wind speed in m/s (hover to see current wind gust speed)